Regional Weather Roundup
Issued by NWS State College, PA

Home | Current Version | Previous Version | Graphics & Text | Print | Product List | Glossary On
Versions: 1 2 3 4 5 6 7 8 9 10 11 12 13 14 15 16 17 18 19 20 21 22 23 24 25 26 27 28 29 30 31 32 33 34 35 36 37 38 39 40 41 42 43 44 45 46 47 48 49 50
000
ASUS41 KCTP 011010
RWRCTP

REGIONAL WEATHER ROUNDUP
NATIONAL WEATHER SERVICE STATE COLLEGE PA
600 AM EDT SAT AUG 01 2015

Note: "fair" indicates few or no clouds below 12,000 feet with no
significant weather and/or obstructions to visibility.

* = STATION THAT DOES NOT REPORT PRECIPITATION /E.G. RAIN...SNOW...ETC/
    THUNDER OR FOG.

PAZ002>004-007>009-013>016-020>023-029>032-011100-
WESTERN PENNSYLVANIA

CITY           SKY/WX    TMP DP  RH WIND       PRES   REMARKS
ERIE           MOCLDY    72  59  63 CALM      29.87R
MEADVILLE      PTCLDY    62  57  83 W5        29.90R
FRANKLIN*      CLEAR     59  54  82 W7        29.91S
NEW CASTLE     FAIR      62  60  93 CALM      29.91R
BEAVER COUNTY  NOT AVBL
BUTLER*        CLEAR     63  57  82 NW5       29.92S
PITTSBURGH INT PTCLDY    66  58  75 W3        29.90S
PITTSBURGH     MOCLDY    69  55  60 W7        29.90S
INDIANA*       CLOUDY    64  63  94 CALM      29.93S
LATROBE        NOT AVBL
WASHINGTON CO* NOT AVBL
$$

PAZ004>006-010>012-017>019-024>028-033>037-041-042-045-046-049>053-011100-
CENTRAL PENNSYLVANIA

CITY           SKY/WX    TMP DP  RH WIND       PRES   REMARKS
BRADFORD       PTCLDY    60  57  89 CALM      29.90R
DUBOIS         CLEAR     63  57  81 W7        29.89R
CLEARFIELD     CLEAR     63  58  83 SW5       29.89R
JOHNSTOWN      CLOUDY    64  57  78 SW5       29.94R
ALTOONA        MOCLDY    65  59  81 S6        29.90F
STATE COLLEGE  PTCLDY    64  59  82 SW6       29.87S
WILLIAMSPORT   CLEAR     63  60  90 CALM      29.82R
SELINSGROVE    MOCLDY    65  62  90 CALM      29.83S
FT INDIANTOWN  CLEAR     62  61  95 E1        29.83S
CAPITAL CITY   PTCLDY    67  59  75 SW5       29.84R
HARRISBURG     PTCLDY    67  62  84 CALM      29.83R
YORK           CLEAR     67  61  81 CALM      29.85R
$$

PAZ038>040-043-044-047-048-054-055-060>062-067>071-011100-
EASTERN PENNSYLVANIA

CITY           SKY/WX    TMP DP  RH WIND       PRES   REMARKS
SCRANTON       MOCLDY    71  60  68 SW7       29.83R
MOUNT POCONO   MOCLDY    64  57  78 W8        29.87R
ALLENTOWN      CLEAR     63  60  90 NW5       29.82S
QUAKERTOWN*    SUNNY     63  61  94 CALM      29.83S
READING        MOCLDY    66  62  87 CALM      29.82R
LANCASTER      CLEAR     65  62  90 SE3       29.84R
COATESVILLE    SUNNY     68  63  83 CALM      29.86R
POTTSTOWN      CLEAR     62  62 100 CALM      29.84S
BLUE BELL      NOT AVBL
DOYLESTOWN     CLEAR     66  61  84 VRB3      29.82S
WILLOW GROVE   NOT AVBL
NORTH PHILA    MOCLDY    75  60  59 SW6       29.83S
PHILADELPHIA   MOCLDY    75  66  73 SW7       29.83S
$$


USA.gov is the U.S. government's official web portal to all federal, state and local government web resources and services.